Temp
24 24 24 24 24 25 25 25 25 25 26 26 26 26 26 26 25 25 25 25 25 25 25 24 24 24 24 24 24 24 24 24 25 25 24 24 25 25 25 25 25 25
25 24 24 25 25 24 25 25 25 25 25 26 26 26 26 26 25 25 25 25 25 25 25 24 24 24 24 24 24 24 24 24 24 25 24 24 25 25 25 25 25 25
25 25 25 25 25 25 25 25 25 25 25 26 26 26 26 26 26 25 25 25 25 25 25 25 24 24 24 24 24 24 24 24 24 25 24 24 25 25 25 25 26 25
25 25 25 25 25 25 25 25 25 25 26 26 26 26 26 26 26 25 25 25 25 25 25 25 25 25 24 24 24 24 24 24 24 24 24 24 24 25 25 25 25 26
25 25 25 25 25 25 25 25 25 25 25 26 26 26 26 26 26 26 25 25 25 25 25 25 25 25 25 24 24 24 25 25 25 24 24 25 24 24 25 25 25 25
25 25 25 25 25 25 25 25 25 25 26 26 26 26 26 25 25 26 26 25 25 25 26 26 25 25 25 25 24 25 25 25 25 25 24 25 25 25 25 25 25 25
25 25 25 25 25 25 25 25 25 25 26 26 26 26 26 25 25 25 26 26 26 26 26 26 26 25 25 25 24 24 24 25 25 25 25 25 25 25 25 25 25 25
25 25 25 25 25 25 25 25 25 25 25 26 26 26 26 26 25 25 25 25 26 26 26 26 25 25 25 25 25 25 25 25 25 25 25 25 25 25 25 25 25 25
25 26 25 25 25 25 26 26 26 25 25 25 26 26 26 25 26 26 25 25 25 25 25 25 25 25 25 25 25 25 25 25 25 25 25 25 25 25 25 25 25 25
26 26 26 25 26 26 26 26 26 26 25 25 26 26 26 25 25 26 25 25 25 25 25 25 25 25 25 25 25 25 25 25 25 25 25 25 25 25 25 25 25 25
26 26 26 26 26 27 27 27 27 27 26 26 26 26 27 26 25 25 25 25 25 25 25 25 25 25 25 25 25 25 25 25 25 25 25 25 25 25 25 25 25 26
26 26 27 27 27 27 27 27 28 28 27 26 26 26 27 27 26 25 25 25 25 25 25 25 25 25 25 25 26 26 25 25 25 25 25 25 25 25 25 25 25 26
26 27 27 27 27 27 28 28 28 28 28 27 26 27 27 27 27 26 25 25 25 25 25 25 25 25 25 25 25 26 25 25 25 26 26 26 26 26 26 26 26 26
26 27 27 27 27 27 27 28 28 28 28 27 27 27 27 27 27 27 26 25 25 25 25 25 25 25 25 25 25 25 25 25 25 26 26 26 26 26 26 26 27 26
26 27 27 27 27 26 27 27 28 28 27 27 27 27 27 27 28 27 27 26 26 25 25 25 25 25 25 25 25 25 25 26 26 26 26 26 26 26 26 26 27 27
26 26 26 27 26 26 26 27 27 27 27 27 27 27 27 27 27 27 27 27 26 26 25 25 26 25 25 25 25 25 25 26 26 26 26 26 26 26 26 27 27 27
26 26 26 26 26 26 26 26 26 26 26 26 26 26 26 26 27 27 27 27 27 26 26 26 26 26 25 25 26 26 25 25 26 26 25 25 26 26 26 27 27 27
26 26 26 26 26 26 25 26 26 26 26 26 26 26 26 26 26 26 26 27 27 27 26 26 26 26 25 25 26 26 26 25 26 26 26 25 26 26 26 26 27 27
26 26 26 26 26 25 25 25 25 25 25 25 26 26 25 25 26 26 26 26 27 27 27 27 27 26 25 25 26 26 26 25 25 26 26 26 26 26 26 26 26 26
26 26 26 26 25 25 25 25 25 25 25 25 25 25 25 25 25 25 25 25 26 26 26 27 27 27 26 25 25 25 25 25 24 25 26 26 26 26 26 26 26 26
26 26 26 26 25 25 25 25 25 25 25 25 26 26 25 25 25 25 25 25 25 26 26 26 27 27 26 25 25 25 25 24 24 24 25 25 25 25 25 25 25 25
26 26 26 26 25 25 25 25 25 25 25 25 26 26 26 26 26 26 26 25 25 26 26 26 27 26 26 25 25 25 24 24 23 23 24 25 25 25 25 25 25 25
27 26 26 26 26 25 25 25 25 25 25 25 25 26 27 26 26 26 26 26 26 26 26 26 27 26 26 25 25 25 24 24 23 23 24 24 24 25 25 25 25 25
27 27 26 26 26 26 26 26 26 25 25 25 26 26 27 27 27 27 26 26 26 26 26 26 26 27 26 25 25 25 24 24 23 23 24 24 24 25 25 25 25 25
27 27 26 26 26 26 26 26 26 26 26 26 26 26 27 27 27 27 27 27 27 27 27 26 27 27 26 25 25 25 24 24 23 24 24 24 25 25 25 25 25 25
27 27 27 26 26 26 26 26 26 26 26 26 26 27 27 27 28 27 27 27 27 27 27 26 27 27 26 26 25 25 25 24 23 24 24 24 25 25 25 25 25 25
Height
821 823 825 827 828 829 831 833 835 837 838 840 842 844 846 848 850 852 853 855 856 857 859 860 861 862 863 864 865 866 867 867 867 868 868 869 870 870 871 871 871 872
818 820 822 824 825 827 828 830 832 834 836 837 840 842 843 845 847 849 851 853 854 855 857 858 859 860 861 863 864 864 865 866 867 867 867 868 869 869 870 870 870 871
815 817 819 821 823 824 825 827 829 831 833 835 837 839 841 843 845 847 849 850 852 854 855 856 857 859 860 861 862 863 864 865 866 866 867 867 868 868 868 869 869 869
811 814 816 818 820 821 823 825 827 828 831 833 835 837 839 841 842 844 846 848 849 851 853 854 855 857 858 859 860 861 862 863 864 865 866 866 866 867 867 867 868 868
807 810 812 815 817 819 821 822 824 826 828 830 832 834 836 838 840 842 844 845 847 849 850 852 853 855 856 857 858 859 860 862 863 864 865 865 865 865 866 866 866 867
803 806 809 812 814 816 818 819 821 823 825 827 829 831 833 835 837 839 841 842 844 846 848 849 851 852 854 855 856 857 859 860 861 862 863 864 864 864 864 865 865 865
798 801 805 808 811 813 815 816 818 820 822 825 826 828 830 832 834 836 838 840 842 843 845 847 848 850 851 853 854 855 856 858 859 860 861 862 863 863 863 863 863 864
794 798 801 804 807 809 811 813 816 817 820 822 824 826 827 829 831 833 835 837 839 840 842 844 846 847 849 850 852 853 854 855 857 858 859 860 861 861 861 862 862 862
790 794 797 800 803 805 807 810 812 814 817 819 821 823 824 826 828 830 832 833 835 838 839 841 843 844 846 848 849 850 851 853 854 855 856 858 858 859 860 860 860 860
786 790 793 796 798 801 803 806 809 811 813 815 817 820 821 823 825 827 829 830 832 834 836 838 839 841 843 845 846 847 849 850 851 853 854 855 856 857 857 858 858 858
782 785 789 791 794 797 799 802 805 808 810 812 814 816 818 820 822 824 826 827 829 831 832 834 836 838 840 841 843 844 846 847 849 850 851 852 853 854 855 856 856 856
777 781 784 787 790 793 795 799 802 804 806 808 810 812 815 817 818 820 822 823 825 827 829 831 833 834 836 838 840 842 843 844 846 847 848 849 850 851 852 853 853 854
772 776 779 783 786 789 792 795 798 800 803 805 807 809 811 813 815 817 818 820 822 824 826 828 829 831 833 834 836 838 840 841 843 844 845 846 847 848 849 850 851 851
767 771 775 779 782 785 789 791 794 797 799 801 804 805 807 809 811 813 815 817 818 820 822 824 826 827 829 831 833 835 837 838 840 841 842 843 845 845 846 847 848 848
764 768 771 775 779 782 785 788 790 793 796 798 800 802 804 806 808 810 812 813 815 817 819 821 822 824 825 827 829 831 833 835 836 838 839 840 842 843 844 844 845 845
760 764 768 772 775 778 781 784 787 790 792 795 797 799 801 803 805 807 808 810 812 813 815 817 818 819 821 822 825 827 830 832 833 835 836 837 839 840 841 841 842 842
757 761 764 768 771 774 778 781 784 787 789 791 793 795 798 800 802 804 805 807 809 810 812 813 814 815 816 818 821 823 826 828 830 832 833 834 836 836 837 838 839 839
753 757 761 764 768 771 774 777 781 783 785 788 790 792 794 796 798 800 802 804 806 807 808 809 810 811 813 814 817 819 822 825 827 828 830 831 832 833 834 835 836 836
750 754 757 761 764 767 771 774 777 780 781 784 786 789 791 793 795 797 799 801 802 804 805 806 807 808 809 811 813 815 818 821 823 825 826 827 828 829 830 831 832 833
746 750 754 757 761 764 768 770 773 775 778 781 783 786 788 790 792 794 795 797 799 800 802 803 804 805 806 807 809 812 814 817 820 822 823 824 825 826 827 828 829 830
742 746 750 754 758 761 764 767 769 772 775 778 780 782 784 786 788 790 792 793 795 797 798 799 800 802 803 804 806 808 811 814 816 819 820 821 821 822 823 824 825 826
738 743 747 750 754 757 760 763 766 769 772 774 777 779 781 783 785 786 788 790 791 792 794 795 796 797 799 800 802 805 808 811 813 815 816 817 818 819 820 821 822 823
735 739 743 747 750 753 756 759 762 765 768 770 773 775 777 779 780 782 783 785 786 788 789 790 792 793 794 796 799 801 804 807 809 811 812 813 814 815 816 817 818 819
732 735 739 743 746 749 753 756 759 761 764 766 768 770 772 774 776 777 779 780 781 783 784 786 787 789 790 792 794 797 799 802 805 806 808 809 810 811 812 813 814 815
728 732 735 739 742 746 749 752 755 758 760 763 765 767 769 770 772 773 775 776 777 779 780 782 783 784 786 787 789 792 794 797 800 802 803 804 806 807 808 809 810 811
725 728 732 735 739 742 746 749 752 755 757 759 761 763 765 767 768 770 771 772 774 775 776 778 779 780 781 782 784 787 789 792 795 797 798 800 801 803 804 805 807 808
Wind_Speed
25 23 22 21 21 19 19 18 17 18 18 17 16 15 15 15 15 15 14 14 13 14 14 13 13 13 11 10 10 9 8 8 8 8 8 8 7 6 6 6 6 6
26 24 22 21 21 19 19 19 18 18 18 18 17 15 14 15 15 15 15 15 14 14 14 14 14 13 12 11 10 10 9 8 8 8 9 9 8 7 7 7 7 7
27 25 24 23 21 21 21 20 19 18 18 17 17 16 15 15 15 15 16 15 14 14 14 14 14 14 13 12 11 11 10 9 8 9 9 9 9 8 8 8 8 8
28 27 26 24 22 21 20 20 19 19 18 17 17 17 16 15 15 15 15 15 15 14 14 14 14 14 14 13 13 12 11 10 9 9 9 9 9 10 9 8 8 8
29 28 26 25 23 22 20 20 20 19 19 19 18 17 17 16 16 15 15 15 15 15 14 14 14 14 14 14 13 12 12 11 10 10 10 10 10 10 10 9 9 9
29 28 27 26 25 24 22 21 21 20 19 20 19 18 18 18 18 17 16 15 15 15 15 15 15 14 14 14 14 13 12 11 11 11 11 11 11 11 10 10 10 10
29 28 28 27 25 24 23 21 21 21 20 19 19 19 18 18 18 18 18 17 16 15 15 15 15 15 14 14 14 14 13 12 11 11 12 12 11 11 11 11 11 11
29 28 28 27 26 25 24 22 21 21 20 19 19 19 19 19 19 18 19 18 17 16 16 15 15 15 15 14 14 14 14 13 12 13 13 13 12 12 12 12 11 11
29 28 28 28 27 25 24 23 22 22 21 21 20 20 19 20 19 19 18 19 18 17 17 16 16 16 16 15 15 15 15 14 13 14 14 14 14 13 13 13 12 12
30 29 28 28 27 26 26 25 23 22 22 22 22 21 20 20 20 19 19 19 19 18 18 18 17 17 17 16 16 16 16 15 14 14 14 14 14 14 13 13 13 13
30 29 29 29 28 27 27 26 25 23 22 23 23 22 21 20 20 20 20 20 20 19 19 19 19 18 18 17 17 16 16 15 15 15 15 15 15 14 14 14 14 13
31 30 29 29 29 28 27 26 25 24 23 23 23 23 22 21 20 20 21 21 21 20 20 20 19 19 19 18 18 17 16 15 15 15 15 15 15 15 15 15 15 14
31 31 30 29 29 28 27 26 26 25 24 23 23 23 23 22 22 21 21 22 22 21 21 20 19 19 19 19 19 18 17 16 16 16 15 15 15 15 15 15 15 15
32 30 30 29 28 27 26 25 26 26 25 24 23 23 23 23 23 22 21 21 22 22 21 20 20 19 19 19 19 19 18 17 17 16 16 15 15 15 15 15 15 15
31 30 29 28 27 27 26 26 25 25 25 24 23 23 23 23 23 22 21 21 21 21 21 20 20 20 20 21 20 19 19 18 18 17 16 16 15 15 15 15 16 16
30 29 28 28 28 27 27 26 25 25 25 25 24 23 23 22 22 22 22 21 20 20 20 20 21 21 22 24 23 21 19 18 17 17 16 16 15 15 15 15 16 15
29 28 28 28 28 27 27 27 26 25 25 25 24 23 22 22 22 22 22 21 20 20 20 20 21 21 24 27 27 25 21 17 16 16 16 16 16 16 16 16 15 15
29 28 28 28 28 27 27 27 26 25 25 25 24 23 22 21 21 22 22 21 20 20 20 20 20 22 25 28 28 28 26 21 17 15 15 16 16 17 16 15 15 15
28 28 28 28 28 27 26 26 26 26 25 25 24 23 22 21 21 21 21 21 21 20 20 20 20 21 25 28 28 29 29 26 21 17 16 16 16 16 16 16 15 15
28 28 28 27 27 26 26 26 27 27 26 24 23 22 22 22 22 21 21 22 22 21 21 21 20 21 24 27 28 28 28 27 24 20 18 18 17 17 16 16 16 15
28 28 27 27 26 26 26 26 26 26 25 24 23 22 22 22 22 22 22 22 22 22 22 22 22 23 24 25 26 26 26 26 25 22 20 19 19 19 18 17 17 16
29 28 28 27 27 27 27 27 26 25 25 24 22 22 21 21 21 22 22 22 23 23 23 23 23 24 26 27 27 26 24 25 25 23 21 21 20 19 20 19 18 18
29 28 27 27 26 27 27 26 25 25 24 24 23 22 22 21 21 22 23 24 24 24 24 24 23 24 27 28 29 28 26 25 24 22 21 21 21 20 20 19 20 20
28 28 27 27 26 26 26 26 25 25 25 24 24 24 23 22 22 22 22 23 24 24 24 23 23 24 26 28 29 29 28 27 24 21 20 21 20 20 20 20 20 22
27 27 27 27 27 26 26 25 25 24 24 23 23 23 23 22 22 21 21 22 22 23 24 25 24 23 26 29 29 30 30 29 24 21 21 21 20 20 19 19 20 21
26 27 27 27 26 26 25 24 24 23 22 22 22 22 21 21 22 21 21 21 21 21 23 25 25 24 25 28 29 30 31 30 26 22 21 20 19 19 18 18 19 19
Wind_Direction
209 209 209 210 209 207 206 207 207 208 208 210 213 213 213 214 216 218 219 219 220 222 223 224 227 229 228 227 228 229 229 228 226 224 222 223 227 229 230 230 231 236
207 209 209 210 211 208 205 205 206 207 207 209 213 212 209 210 213 216 219 220 224 226 226 226 228 229 225 222 223 225 226 226 227 227 222 221 224 228 232 232 232 232
206 208 208 210 211 208 206 204 205 207 208 210 212 211 209 210 211 213 217 220 224 228 228 227 228 228 226 223 219 222 225 222 225 229 225 223 224 226 229 229 232 229
205 207 208 210 211 210 205 203 204 206 208 209 211 211 211 211 210 211 213 216 221 224 225 226 227 226 225 224 221 223 224 221 222 226 227 228 227 226 229 228 230 230
204 206 208 209 211 211 206 204 205 206 207 209 209 210 210 209 209 209 211 213 217 220 222 224 226 226 225 223 222 222 223 221 219 219 224 229 229 227 228 228 228 229
201 204 207 208 209 210 208 206 207 208 207 208 208 208 208 208 209 211 211 213 216 218 219 221 223 225 224 224 223 221 220 221 217 214 220 227 230 230 228 227 226 227
198 201 204 206 207 207 207 207 207 208 208 207 207 207 207 208 210 212 213 214 216 216 216 218 219 220 221 221 222 219 216 218 217 214 219 225 230 232 232 230 228 228
196 198 200 202 203 203 204 206 206 207 207 206 207 207 207 208 210 212 213 214 215 215 214 215 214 215 218 219 219 218 215 216 216 215 217 222 227 230 232 232 231 231
194 196 197 198 200 201 203 205 206 206 206 205 207 208 207 209 211 212 213 212 213 213 213 213 213 213 215 217 217 217 216 217 217 216 216 219 223 227 229 230 232 232
193 194 196 198 200 202 203 205 206 205 205 205 207 208 208 209 211 212 212 211 211 212 211 212 212 212 213 214 216 216 217 218 218 217 219 220 223 227 229 230 231 233
192 194 196 199 201 203 204 205 206 205 204 205 206 208 208 208 210 211 211 211 210 211 212 212 212 212 212 213 215 217 217 218 219 219 221 223 226 228 229 230 232 234
192 194 197 199 200 202 204 204 205 205 204 204 205 207 208 208 209 209 209 210 211 212 212 212 212 212 212 213 214 216 217 218 219 220 222 224 226 228 229 230 233 234
191 194 196 198 199 201 203 203 204 204 204 204 205 205 206 208 209 208 208 209 211 213 213 212 212 212 211 212 213 214 215 217 219 220 222 225 227 229 231 231 233 234
191 192 194 197 197 199 201 202 202 203 204 204 204 205 207 208 209 208 208 209 211 213 214 213 212 212 211 211 212 212 214 216 219 221 223 225 227 229 231 232 235 235
189 190 192 194 195 196 198 200 200 200 201 202 203 205 207 209 210 210 209 210 211 212 212 212 213 213 212 211 210 210 212 216 218 220 223 225 227 229 231 232 235 236
186 187 190 191 193 194 195 197 198 198 199 201 203 205 207 208 209 211 211 211 210 210 210 211 213 214 215 215 214 211 210 213 217 219 221 223 225 227 230 232 234 237
184 186 188 190 192 192 193 194 196 197 198 200 203 205 206 207 208 210 212 213 212 211 211 211 214 216 219 222 223 220 214 210 213 217 219 221 223 225 229 232 234 235
183 185 187 189 190 191 191 193 194 196 198 200 202 204 204 206 208 209 211 214 214 215 214 215 216 218 222 227 230 229 224 217 214 217 219 221 224 226 228 230 231 231
183 185 187 188 189 190 190 192 194 196 198 200 202 204 204 206 208 209 211 213 215 217 218 220 222 222 226 231 233 234 232 226 220 220 223 224 225 226 228 228 227 227
183 185 188 188 189 189 190 192 195 198 199 201 202 204 204 207 208 209 211 212 214 217 221 224 227 226 229 234 236 236 236 232 226 224 228 229 228 228 228 227 225 224
184 186 188 188 188 190 192 195 198 199 201 202 204 206 207 208 209 210 211 212 214 217 222 226 229 229 230 234 237 237 236 234 229 226 228 231 231 230 230 229 227 225
186 187 188 189 190 192 195 198 200 201 202 203 205 208 209 209 210 212 212 214 216 217 221 226 228 228 228 231 235 236 234 232 228 225 227 230 231 231 230 230 229 226
188 189 189 190 192 194 197 199 200 201 201 202 204 208 209 209 210 212 214 216 217 217 220 224 227 228 228 231 233 233 230 227 223 222 225 228 230 232 230 230 230 227
189 189 190 191 193 196 199 199 200 200 201 202 204 208 210 210 210 212 214 216 218 218 219 221 226 228 228 230 232 232 229 225 219 218 223 226 228 231 230 231 232 229
189 190 190 192 194 197 199 199 200 201 202 203 206 209 211 211 212 213 216 217 219 220 220 221 226 229 229 230 232 232 230 224 217 216 221 223 226 228 228 229 232 232
188 190 191 194 195 196 198 199 200 202 203 203 206 209 211 213 214 215 217 219 220 221 221 222 225 228 230 231 231 232 231 224 216 216 219 221 223 226 226 228 229 231